Flag for Paraguay Weather past 2 weeks in Ciudad del Este, Paraguay

Now
64 °F

Sunny.


Feels Like: 64 °F
Forecast: 63 / 87 °F
Wind: 13 mph from East

Location: Foz Do Iguacu Aeroporto

Current Time: Sep 23, 2014 at 7:30:28 AM

Latest Report: Sep 23, 2014 at 7:00 AM


Visibility: 10 mi

Pressure: 29.98 "Hg

Humidity: 78%

Dew point: 57 °F

Location of Ciudad del EsteLocation

Historic Weather in Ciudad del Este — Graph

°F

Ciudad del Este temperature yesterday

Maximum temperature yesterday: 84 °F (at 2:00 PM)
Minimum temperature yesterday: 52 °F (at 3:00 AM)
Average temperature yesterday: 68 °F

Past Weeks' High & Low Weather Summary

 TemperatureHumidityPressure
High97 °F (Sep 13, 2:00 PM)100% (Sep 11, 8:00 PM)30.12 "Hg (Sep 11, 8:00 PM)
Low46 °F (Sep 20, 4:00 AM)26% (Sep 13, 4:00 PM)29.71 "Hg (Sep 10, 2:00 PM)
Average71 °F73%29.94 "Hg
* Reported Sep 8 6:00 AM — Sep 23 6:00 AM, Ciudad del Este, Weather by CustomWeather, © 2014

Note: Actual official high and low records may vary slightly from our data, if they occured in-between our weather recording intervals... More about our weather records

Advertising

Ciudad del Este weather history for previous 24 hours

 ConditionsComfort  
Time TempWeatherWind HumidityBarometerVisibility
6:00 AM
Sep 23
61 °FSunny.12 mph83%29.95 "Hg10 mi
5:00 AM61 °FSunny.9 mph83%29.95 "Hg10 mi
4:00 AM63 °FClear.9 mph77%29.92 "Hg10 mi
3:00 AM63 °FClear.9 mph77%29.89 "Hg10 mi
2:00 AM68 °FClear.12 mph64%29.89 "Hg10 mi
1:00 AM70 °FClear.10 mph60%29.92 "Hg10 mi
12:00 AM66 °FClear.9 mph68%29.92 "Hg10 mi
11:00 PM
Sep 22
70 °FClear.9 mph60%29.92 "Hg10 mi
10:00 PM68 °FClear.10 mph69%29.92 "Hg10 mi
9:00 PM66 °FClear.7 mph73%29.92 "Hg10 mi
8:00 PM73 °FClear.6 mph57%29.92 "Hg10 mi
7:00 PM75 °FClear.5 mph54%29.89 "Hg10 mi
6:00 PM73 °FClear.2 mph61%29.89 "Hg10 mi
5:00 PM82 °FClear.6 mph42%29.89 "Hg10 mi
4:00 PM84 °FSunny.8 mph40%29.89 "Hg10 mi
3:00 PM84 °FSunny.9 mph40%29.92 "Hg10 mi
2:00 PM84 °FSunny.9 mph40%29.92 "Hg10 mi
1:00 PM82 °FSunny.10 mph42%29.98 "Hg10 mi
12:00 PM81 °FSunny.10 mph42%30.01 "Hg10 mi
11:00 AM77 °FSunny.8 mph51%30.04 "Hg10 mi
10:00 AM72 °FSunny.8 mph57%30.07 "Hg10 mi
9:00 AM66 °FSunny.9 mph64%30.07 "Hg10 mi
8:00 AM63 °FSunny.12 mph64%30.07 "Hg10 mi
7:00 AM59 °FSunny.12 mph72%30.04 "Hg10 mi
Weather by CustomWeather, © 2014

See weather overviewHow to use our weather pages